Regional Weather Roundup
Issued by NWS Charleston, SC

Current Version | Previous Version | Text Only | Print | Product List | Glossary Off
Versions: 1 2 3 4 5 6 7 8 9 10 11 12 13 14 15 16 17 18 19 20 21 22 23 24 25 26 27 28 29 30 31 32 33 34 35 36 37 38 39 40 41 42 43 44 45 46 47 48 49 50

842
ASUS42 KCHS 231827
RWRCHS

REGIONAL WEATHER ROUNDUP
NATIONAL WEATHER SERVICE CHARLESTON SC
200 PM EDT MON MAY 23 2016

NOTE: "FAIR" INDICATES FEW OR NO CLOUDS BELOW 12,000 FEET WITH NO
SIGNIFICANT WEATHER AND/OR OBSTRUCTIONS TO VISIBILITY.

NOT ALL STATIONS ARE QUALITY CONTROLLED. USE DATA WITH CAUTION...
ESPECIALLY DEWPOINT OBSERVATIONS.

SCZ027-030-031-034>040-042>050-231900-
...SOUTHEAST SOUTH CAROLINA...

CITY           SKY/WX    TMP DP  RH WIND       PRES   REMARKS
N CHARLESTON   MOSUNNY   79  51  37 VRB3      29.96S
6HR MIN TEMP:  64; 6HR MAX TEMP:  80;

WATERFRONT PRK   N/A     75  51  43 N7        29.94S
MOUNT PLEASANT   N/A     77  52  41 NW8       29.96S
JOHNS ISLAND   FAIR      79  52  38 VRB6      29.96S
PINOPOLIS        N/A     73  52  46 NW7       29.91S
MONCKS CORNER  FAIR      72  45  37 N6        29.97F
SUMMERVILLE    FAIR      79  52  38 NW6G18    29.97F
BEAUFORT MCAS  MOSUNNY   81  49  32 N9G18     29.97S
6HR MIN TEMP:  63; 6HR MAX TEMP:  81;

BEAUFORT ARPT  FAIR      79  45  29 W6        29.96F
HILTON HEAD IS MOSUNNY   77  50  38 N8        29.98S
WALTERBORO     CLEAR     79  45  29 W8        29.97F
ALLENDALE      FAIR      79  50  36 VRB3      29.96F

...SOUTHERN MIDLANDS AND PEE DEE...

CITY           SKY/WX    TMP DP  RH WIND       PRES   REMARKS
GEORGETOWN     MOCLDY    73  50  43 NW10G22   29.97S
KINGSTREE      MOCLDY    72  46  40 N7        29.97S
ORANGEBURG     MOSUNNY   77  49  37 NE5       29.97F
6HR MIN TEMP:  59; 6HR MAX TEMP:  78; 6HR PCP: TRACE;

BARNWELL       FAIR      81  54  39 NW7       29.97F
AIKEN          FAIR      73  46  38 CALM      30.00F
MANNING        MOCLDY    73  48  40 N8        29.97F
COLUMBIA       PTSUNNY   78  49  35 NW9       29.96F
6HR MIN TEMP:  65; 6HR MAX TEMP:  79;

SUMTER         PTSUNNY   73  49  44 NE9       29.95F
6HR MIN TEMP:  62; 6HR MAX TEMP:  74;

FLORENCE       PTSUNNY   71  50  47 NW9       29.97S
6HR MIN TEMP:  60; 6HR MAX TEMP:  73;

MYRTLE BEACH   MOSUNNY   72  50  46 N12       29.97S
N MYRTLE BEACH CLOUDY    70  52  52 VRB5      29.95S
6HR MIN TEMP:  59; 6HR MAX TEMP:  72;


$$

GAZ063-065-086>088-099>101-113>116-118-119-134>141-150-231900-
...SOUTHEAST GEORGIA...

CITY           SKY/WX    TMP DP  RH WIND       PRES   REMARKS
SAVANNAH ARPT  MOSUNNY   81  48  31 N5        29.97S
6HR MIN TEMP:  63; 6HR MAX TEMP:  82;

HUNTER AAF     MOSUNNY   81  52  35 VRB2      29.94F
6HR MIN TEMP:  65; 6HR MAX TEMP:  82;

FORT STEWART   MOSUNNY   81  50  33 VRB6      29.94S
6HR MIN TEMP:  64; 6HR MAX TEMP:  83;

STATESBORO     MOSUNNY   82  52  35 N8        29.97S
SYLVANIA       PTCLDY    82  46  28 CALM      29.98S
CLAXTON        FAIR      82  53  36 N5        29.97S

...CSRA...CENTRAL AND FAR SOUTHEAST GEORGIA...

CITY           SKY/WX    TMP DP  RH WIND       PRES   REMARKS
THOMSON        MOSUNNY   81  54  39 NW9       30.02F
AUGUSTA-BUSH   MOSUNNY   79  49  34 N9        29.97S
6HR MIN TEMP:  59; 6HR MAX TEMP:  80;

AUGUSTA-DANIEL MOSUNNY   80  49  33 N12       29.98F
SWAINSBORO     FAIR      81  46  30 W8        29.97F
VIDALIA        MOSUNNY   81  46  30 N8        29.97F
EASTMAN        FAIR      83  46  27 NW8       30.00S
HAZLEHURST     MOCLDY    82  47  28 CALM      29.96F
ALMA           PTSUNNY   79  54  41 N3        29.96F
6HR MIN TEMP:  62; 6HR MAX TEMP:  82;

WAYCROSS       MOSUNNY   82  53  37 CALM      29.96F
JESUP          MOCLDY    77  48  36 CALM      29.96S
BAXLEY         PTSUNNY   82  50  32 N6        29.96S
BRUNSWICK      MOSUNNY   86  50  28 W5        29.96F
SAINT SIMONS   MOSUNNY   78  59  51 SE13      29.96F
6HR MIN TEMP:  67; 6HR MAX TEMP:  81;


$$

SCZ027-028-034-036>038-045-046-048>050-GAZ119-141-231900-
...LAKE AND SUPPLEMENTAL COASTAL OBSERVATIONS...

STATION/POSITION TIME  TEMP    WIND        PRES    WAVE   SWELL
                       AIR SEA DIR/SP/G            HT/PER HT/PER/DIR
                 (UTC) (F)     (DEG/KT/KT) (MB)    (FT/S) (FT/S/D)
WINYAH BAY       NOT AVBL
LAKE MURRAY      1700   73     320/  5/  8 1014.6S
ACE BASIN NERRS  NOT AVBL
FORT PULASKI     1800      75   70/  8/  9 1015.0F
SAPELO ISLAND    1700   81     230/  2     1015.0S

$$

ANZ835-935-AMZ111-154-330-350-352-354-370-450-454-472-231900-
...C-MAN AND BUOY OBSERVATIONS...

STATION/POSITION TIME  TEMP    WIND        PRES    WAVE   SWELL
                       AIR SEA DIR/SP/G            HT/PER HT/PER/DIR
                 (UTC) (F)     (DEG/KT/KT) (MB)    (FT/S) (FT/S/D)
BUOY 41004       1750   69 75  340/ 12/ 14 1014.4R   2/ 9   2/ 9
BUOY 41008       NOT AVBL
FOLLY BEACH CMAN 1800   73     190/  7/  8 1014.8S
CAPERS NEARSHORE 1808   73 75  300/ 10/ 14 1014.3F
FRIPP NEARSHORE  1808   74 75  150/  4/  6 1014.3S


STATION/POSITION TIME  TEMP    WIND        PRES    WAVE   SWELL
                       AIR SEA DIR/SP/G            HT/PER HT/PER/DIR
                 (UTC) (F)     (DEG/KT/KT) (MB)    (FT/S) (FT/S/D)
5E ST. MARYS GA  1721      81                N/A     2/ 9
FRYING PAN BUOY  1800   67 76  280/ 14/ 17 1013.5F
BUOY 41025       1750   62 66  300/ 12/ 14 1011.9R   3/ 9   2/130/ 9
CAPE LOOKOUT NC  1800   64     300/ 14/ 17 1012.2S
BUOY 41002       1750   73 77  310/  8/ 12 1012.8S   5/ 7   5/ 20/ 7
BUOY 41010       1720   78 80  230/  4/  6 1014.1R
ST AUGUSTINE FL  1800   75 80   40/ 10/ 12 1015.5F


$$




USA.gov is the U.S. government's official web portal to all federal, state and local government web resources and services.